Location: Poughquag
(41.6090°N, 73.6820°W)
Time: 12:34:10
(UTC-04:00)

Tiros 1 - Pass Details

Date: 02 June 2020
Orbit: 630 x 664 km, 48.4° (Epoch: 06 July)

Event Time Altitude Azimuth Distance (km) Brightness Sun altitude
Rises 11:05:35 0° 201° (SSW) 2,973 10.6 60.4°
Reaches altitude 10° 11:08:20 10° 187° (S) 2,061 10.1 60.8°
Maximum altitude 11:12:02 23° 135° (SE) 1,397 9.8 61.4°
Drops below altitude 10° 11:15:42 10° 84° (E) 2,054 10.2 61.9°
Sets 11:18:26 0° 70° (ENE) 2,962 10.8 62.4°
